Regional Weather Roundup
Issued by NWS

Home | Current Version | Previous Version | Text Only | Print | Product List | Glossary On
Versions: 1 2 3 4 5 6 7 8 9 10 11 12 13 14 15 16 17 18 19 20 21 22 23 24 25 26 27 28 29 30 31 32 33 34 35 36 37 38 39 40 41 42 43 44 45 46 47 48 49 50
000
ASUS43 KLMK 301102
RWRKY
KENTUCKY REGIONAL WEATHER ROUNDUP
NATIONAL WEATHER SERVICE LOUISVILLE KY
600 AM EST FRI JAN 30 2015

NOTE "FAIR" INDICATES FEW OR NO CLOUDS BELOW 12,000 FEET
WITH NO SIGNIFICANT WEATHER AND/OR OBSTRUCTIONS TO VISIBILITY.

KYZ001>023-026-027-061>063-070>075-301200-
WESTERN AND SOUTH CENTRAL KENTUCKY

CITY           SKY/WX    TMP DP  RH WIND       PRES   REMARKS
PADUCAH        CLOUDY    36  24  62 N12       30.44S WCI  28
HENDERSON      CLOUDY    34  21  60 NW6       30.43S WCI  29
OWENSBORO      CLOUDY    35  25  67 NW15      30.42R WCI  25
HOPKINSVILLE   CLOUDY    34  26  70 N10       30.42R WCI  26
BOWLING GREEN  CLOUDY    35  28  75 NW9       30.40R WCI  28
GLASGOW        NOT AVBL
$$

KYZ024-025-028>034-038-045-046-053-301200-
NORTH CENTRAL KENTUCKY

CITY           SKY/WX    TMP DP  RH WIND       PRES   REMARKS
LOUISVILLE/SDF CLOUDY    37  24  59 NW14      30.35R WCI  28
LOUISVILLE/LOU CLOUDY    36  23  59 NW8       30.35R WCI  30
FORT KNOX      CLOUDY    34  25  69 W12       30.34R WCI  26
$$

KYZ035>037-039>044-047>052-055>060-089>105-301200-
NORTHEAST KENTUCKY

CITY           SKY/WX    TMP DP  RH WIND       PRES   REMARKS
LEXINGTON      FLURRIES  32  28  85 W8        30.29S WCI  25
COVINGTON      CLOUDY    33  24  69 NW15G25   30.27R WCI  23
FRANKFORT      CLOUDY    34  23  64 NW7G17    30.29R WCI  28
$$

KYZ054-064>069-076>088-106>120-301200-
SOUTHEAST KENTUCKY

CITY           SKY/WX    TMP DP  RH WIND       PRES   REMARKS
JACKSON        MIX PCPN  31  26  82 W6        30.24R WCI  25
LONDON         CLOUDY    33  25  72 NW8       30.28R WCI  26
SOMERSET       NOT AVBL
MIDDLESBORO    NOT AVBL
MONTICELLO     PTSUNNY   34  30  85 NW10      30.35R WCI  26
$$




USA.gov is the U.S. government's official web portal to all federal, state and local government web resources and services.